sat.trackr.live / text

‹ back to catalog

CLUSTER II-FM8 (TANGO)

NORAD 26464 · 2000-045B

PAYLOAD ACTIVE UNKNOWN

§ Identity

Operator
Country
ESA
Launch date
2000-08-09
Launch site
TYMSC
Launch vehicle
Mass (kg)
RCS (m²)
1.59

Purposes: science

External: N2YO · Heavens-Above · Gunter

§ Orbital elements

Epoch: 2026-05-23T16:10:02.680032Z

Period
3,243.01 min
Inclination
150.1185°
Eccentricity
0.9031581
Mean motion
0.44403233 rev/d
Perigee alt
650.2 km
Apogee alt
131,745.2 km
Semi-major
72,575.8 km
B*
0.0000e+0
RAAN
47.6077°
Arg perigee
264.3140°
Mean anomaly
3.6732°
Rev number
2,020

§ Raw data

CLUSTER II-FM8 (TANGO)1 26464U 00045B   26143.67364213  .00003023  00000+0  00000+0 0  99952 26464 150.1185  47.6077 9031581 264.3140   3.6732  0.44403233 20201

JSON: /api/v1/satellites/26464 · /tle

For live sub-satellite position, see the globe view (requires WebGL).

§ Visibility from observer

Set your observer location to see the next 7 days of passes ≥ 10°. The values pass through the URL so the page stays shareable.

No JS? Fill the form by hand. The geolocation button needs JavaScript.

§ Radio — SatNOGS DB

ModeDescriptionDownlinkUplink
FM S-Band 2.249 GHz
FM S-Band 2 2.278 GHz

2 transmitters · refreshed weekly from db.satnogs.org